Muskegon, MI

3:43 AM EST on November 21, 2019 (GMT -0500)
Muskegon County

Weather History for KMKG - September, 2019

Change the Weather History Date:

Saturday, September 21, 2019

  Actual Average Record
Temperature  
Mean Temperature 72 °F 60 °F  
Max Temperature 79 °F 69 °F 86 °F (1941)
Min Temperature 65 °F 51 °F 31 °F (1962)
Degree Days  
Heating Degree Days 0 6  
Month to date heating degree days 20 73  
Since 1 July heating degree days 24 103  
Cooling Degree Days 7 1  
Month to date cooling degree days 71 48  
Year to date cooling degree days 616 555  
Growing Degree Days 22 (Base 50)    
Moisture  
Dew Point 65 °F    
Average Humidity 80    
Maximum Humidity 93    
Minimum Humidity 67    
Precipitation  
Precipitation 0.03 in 0.15 in 3.46 in (1947)
Month to date precipitation 3.62 2.72  
Year to date precipitation 30.75 23.30  
Snow  
Snow 0.00 in 0.00 in - ()
Month to date snowfall 0.0 0.0  
Since 1 July snowfall 0.0 0.0  
Since 1 September snowfall 0.0 0.0  
Snow Depth 0.00 in    
Sea Level Pressure  
Sea Level Pressure 30.07 in    
Wind  
Wind Speed 11 mph (South)    
Max Wind Speed 21 mph    
Max Gust Speed 31 mph    
Visibility 8 miles    
Events Rain    
T = Trace of Precipitation, MM = Missing Value Source: NWS Daily Summary

Daily Weather History Graph

Daily Weather History Graph

Search for Another Location

Airport or City:

Astronomy

Sep. 21, 2019 Rise Set
Actual Time 7:30 AM EDT 7:44 PM EDT
Civil Twilight 7:02 AM EDT 8:12 PM EDT
Nautical Twilight 6:29 AM EDT 8:46 PM EDT
Astronomical Twilight 5:54 AM EDT 9:20 PM EDT
Moon No Moon Rise 2:46 PM EDT
Length of Visible Light 13h 10m
Length of Day
12h 13m
Waning Gibbous, 55% of the Moon is Illuminated
Sep 21
Waning Gibbous
Sep 21
Last Quarter
Sep 28
New
Oct 5
First Quarter
Oct 13
Full

Hourly Weather History & Observations

Time (EDT) Temp. Dew Point Humidity Pressure Visibility Wind Dir Wind Speed Gust Speed Precip Events Conditions
12:55 AM 68.0 °F 62.1 °F 81% 30.12 in 8.0 mi Calm Calm - N/A   Overcast
1:55 AM 66.0 °F 62.1 °F 87% 30.11 in 8.0 mi Calm Calm - N/A   Clear
2:55 AM 66.9 °F 63.0 °F 87% 30.10 in 6.0 mi SE 4.6 mph - N/A   Clear
3:55 AM 66.9 °F 63.0 °F 87% 30.10 in 6.0 mi ESE 3.5 mph - N/A   Clear
4:55 AM 66.0 °F 63.0 °F 90% 30.10 in 6.0 mi ESE 4.6 mph - N/A   Clear
5:55 AM 66.9 °F 63.0 °F 87% 30.10 in 5.0 mi Calm Calm - N/A   Partly Cloudy
6:55 AM 64.9 °F 62.1 °F 90% 30.11 in 4.0 mi East 4.6 mph - N/A   Partly Cloudy
7:55 AM 66.9 °F 63.0 °F 87% 30.12 in 4.0 mi SSE 4.6 mph - N/A   Partly Cloudy
8:55 AM 72.0 °F 66.9 °F 84% 30.11 in 6.0 mi South 6.9 mph - N/A   Partly Cloudy
9:55 AM 75.9 °F 68.0 °F 76% 30.10 in 10.0 mi South 10.4 mph - N/A   Partly Cloudy
10:55 AM 78.1 °F 66.9 °F 68% 30.09 in 10.0 mi South 17.3 mph 24.2 mph N/A   Partly Cloudy
11:55 AM 78.1 °F 66.0 °F 66% 30.09 in 10.0 mi South 17.3 mph - N/A   Mostly Cloudy
12:55 PM 77.0 °F 66.0 °F 69% 30.09 in 10.0 mi South 15.0 mph 27.6 mph N/A   Overcast
1:55 PM 77.0 °F 66.9 °F 71% 30.09 in 10.0 mi South 13.8 mph 25.3 mph N/A   Overcast
2:55 PM 75.9 °F 66.9 °F 74% 30.07 in 10.0 mi South 15.0 mph 24.2 mph N/A   Overcast
3:55 PM 77.0 °F 66.9 °F 71% 30.04 in 10.0 mi South 17.3 mph 24.2 mph N/A   Overcast
4:55 PM 75.0 °F 66.9 °F 76% 30.03 in 9.0 mi SSW 18.4 mph 31.1 mph 0.00 in Rain Light Rain
5:55 PM 73.0 °F 66.9 °F 81% 30.02 in 10.0 mi SSW 13.8 mph 24.2 mph 0.01 in Rain Light Rain
6:55 PM 73.0 °F 66.9 °F 81% 30.01 in 10.0 mi SSW 16.1 mph 26.5 mph 0.01 in   Mostly Cloudy
7:55 PM 73.0 °F 66.9 °F 81% 30.00 in 10.0 mi South 18.4 mph 25.3 mph 0.00 in Rain Light Rain
8:55 PM 72.0 °F 66.9 °F 84% 30.01 in 10.0 mi South 13.8 mph 21.9 mph 0.01 in Rain Light Rain
9:55 PM 72.0 °F 66.9 °F 84% 30.01 in 10.0 mi South 12.7 mph - 0.00 in   Overcast
10:55 PM 73.4 °F 66.2 °F 78% 29.99 in 10.0 mi South 16.1 mph 26.5 mph N/A   Overcast
11:55 PM 73.0 °F 66.9 °F 81% 30.00 in 10.0 mi SSW 12.7 mph - N/A   Overcast